EW3608 Weather Reports


time (UTC)temp
F
wind
direction
speed
knots
gust
knots
rain 1hr
in
rain 24hr
in
rain mn
in
humidity
%
barometer
mb
20260502203503 72 77 2.6 7.8 0.00 0.00 0.00 14 1018.7
20260502203006 72 10 2.6 5.2 0.00 0.00 0.00 13 1018.7
20260502202511 72 93 1.7 5.2 0.00 0.00 0.00 13 1018.8
20260502202005 72 113 1.7 6.1 0.00 0.00 0.00 14 1018.9
20260502201525 72 82 0.9 7.0 0.00 0.00 0.00 13 1018.9
20260502201008 72 98 2.6 6.1 0.00 0.00 0.00 14 1018.9
20260502200509 72 81 1.7 6.1 0.00 0.00 0.00 14 1018.9
20260502200013 72 78 1.7 6.1 0.00 0.00 0.00 14 1018.9
20260502195503 72 231 1.7 6.1 0.00 0.00 0.00 14 1019.0
20260502195006 71 63 1.7 7.0 0.00 0.00 0.00 15 1019.1
20260502194511 70 146 0.9 7.0 0.00 0.00 0.00 16 1019.1
20260502194006 69 153 2.6 4.3 0.00 0.00 0.00 15 1019.1
20260502193506 70 39 2.6 5.2 0.00 0.00 0.00 15 1019.2
20260502193012 70 336 0.9 7.0 0.00 0.00 0.00 15 1019.3
20260502192505 69 122 1.7 7.0 0.00 0.00 0.00 16 1019.4
20260502192006 69 58 3.5 7.0 0.00 0.00 0.00 15 1019.3
20260502191507 69 42 3.5 7.0 0.00 0.00 0.00 16 1019.5
20260502191003 69 54 1.7 6.1 0.00 0.00 0.00 17 1019.6
20260502190506 69 94 2.6 8.7 0.00 0.00 0.00 16 1019.7
20260502190016 69 115 3.5 8.7 0.00 0.00 0.00 16 1019.8
20260502185509 70 72 2.6 4.3 0.00 0.00 0.00 16 1019.9
20260502185011 69 80 0.9 3.5 0.00 0.00 0.00 16 1019.9
20260502184513 68 140 0.9 8.7 0.00 0.00 0.00 17 1019.9
20260502184002 68 105 1.7 8.7 0.00 0.00 0.00 17 1020.0
20260502183503 68 349 2.6 7.8 0.00 0.00 0.00 16 1020.0
20260502183010 68 183 2.6 7.8 0.00 0.00 0.00 18 1020.3
20260502182506 68 155 1.7 5.2 0.00 0.00 0.00 17 1020.3
20260502182006 67 211 0.9 7.8 0.00 0.00 0.00 17 1020.5
20260502181513 67 119 2.6 7.8 0.00 0.00 0.00 17 1020.5
20260502181007 67 198 2.6 4.3 0.00 0.00 0.00 17 1020.6
20260502180508 67 97 0.9 8.7 0.00 0.00 0.00 16 1020.8
20260502170509 64 50 0.9 6.1 0.00 0.00 0.00 18 1021.3
20260502164003 63 22 2.6 7.0 0.00 0.00 0.00 19 1021.3
20260502163503 63 342 0.9 7.0 0.00 0.00 0.00 19 1021.3
20260502163014 63 58 4.3 7.0 0.00 0.00 0.00 18 1021.4
20260502162508 62 346 1.7 7.0 0.00 0.00 0.00 20 1021.4
20260502162007 62 20 1.7 7.0 0.00 0.00 0.00 21 1021.3
20260502161518 62 96 1.7 7.8 0.00 0.00 0.00 20 1021.4
20260502161006 62 22 1.7 7.8 0.00 0.00 0.00 19 1021.5
20260502160510 62 76 1.7 7.0 0.00 0.00 0.00 19 1021.5
20260502152007 60 124 0.9 3.5 0.00 0.00 0.00 24 1021.9
20260502151512 60 88 0.9 2.6 0.00 0.00 0.00 25 1021.9
20260502151007 59 74 0.9 2.6 0.00 0.00 0.00 27 1022.0
20260502150507 58 171 0.9 2.6 0.00 0.00 0.00 28 1022.0
20260502130508 36 138 0.0 0.9 0.00 0.00 0.00 66 1022.4
20260502123507 33 221 0.0 0.0 0.00 0.00 0.00 71 1022.2
20260502123020 33 221 0.0 0.0 0.00 0.00 0.00 71 1022.2
20260502122507 33 221 0.0 0.0 0.00 0.00 0.00 70 1022.2
20260502122006 33 221 0.0 0.0 0.00 0.00 0.00 69 1022.1
20260502121504 33 202 0.0 0.0 0.00 0.00 0.00 68 1022.1
20260502121004 33 206 0.0 0.0 0.00 0.00 0.00 68 1022.0
20260502120503 33 206 0.0 1.7 0.00 0.00 0.00 68 1022.1
20260502115508 34 207 0.0 1.7 0.00 0.00 0.00 67 1022.0
20260502115009 34 207 0.0 1.7 0.00 0.00 0.00 66 1022.1
20260502114524 34 207 0.0 1.7 0.00 0.00 0.00 66 1022.0
20260502114003 35 207 0.0 1.7 0.00 0.00 0.00 65 1022.0
20260502113504 35 207 0.0 1.7 0.00 0.00 0.00 64 1022.0
20260502113007 35 208 0.0 1.7 0.00 0.00 0.00 64 1021.9
20260502112503 36 210 0.0 1.7 0.00 0.00 0.00 62 1021.9
20260502112005 36 246 0.0 1.7 0.00 0.00 0.00 62 1022.0
20260502111516 36 346 0.0 1.7 0.00 0.00 0.00 60 1021.9
20260502111008 37 346 0.0 1.7 0.00 0.00 0.00 60 1021.9
20260502110511 38 346 0.0 1.7 0.00 0.00 0.00 59 1021.8
20260502110004 38 346 0.0 1.7 0.00 0.00 0.00 56 1021.8
20260502105505 39 346 0.0 1.7 0.00 0.00 0.00 54 1021.8
20260502105003 39 346 0.0 1.7 0.00 0.00 0.00 53 1021.8
20260502104521 39 346 0.0 1.7 0.00 0.00 0.00 54 1021.8
20260502104005 39 348 0.9 1.7 0.00 0.00 0.00 54 1021.8
20260502103506 38 338 0.0 1.7 0.00 0.00 0.00 55 1021.7
20260502103020 38 319 0.0 1.7 0.00 0.00 0.00 56 1021.7
20260502102513 37 319 0.0 1.7 0.00 0.00 0.00 56 1021.7
20260502102003 37 279 0.0 1.7 0.00 0.00 0.00 58 1021.7
20260502101509 36 197 0.0 1.7 0.00 0.00 0.00 61 1021.6
20260502101003 36 197 0.0 1.7 0.00 0.00 0.00 62 1021.5
20260502100504 36 195 0.9 2.6 0.00 0.00 0.00 64 1021.5
20260502071522 42 192 0.0 1.7 0.00 0.00 0.00 51 1021.8
20260502071003 42 192 0.0 1.7 0.00 0.00 0.00 50 1021.8
20260502070504 43 192 0.0 1.7 0.00 0.00 0.00 49 1021.9
20260502070007 43 192 0.0 1.7 0.00 0.00 0.00 49 1021.9
20260502065504 44 220 0.0 1.7 0.00 0.00 0.00 48 1021.9
20260502065013 44 221 0.0 1.7 0.00 0.00 0.00 47 1022.0
20260502064517 45 194 0.0 3.5 0.00 0.00 0.00 46 1022.0
20260502064007 46 208 0.9 3.5 0.00 0.00 0.00 45 1022.0
20260502063511 46 199 0.9 1.7 0.00 0.00 0.00 43 1022.0
20260502063007 46 185 0.0 1.7 0.00 0.00 0.00 44 1022.1
20260502062503 46 234 0.9 3.5 0.00 0.00 0.00 43 1022.0
20260502062004 46 235 0.9 3.5 0.00 0.00 0.00 43 1022.0
20260502061513 46 184 0.0 1.7 0.00 0.00 0.00 43 1022.0
20260502061008 47 209 0.9 2.6 0.00 0.00 0.00 43 1022.0
20260502060506 46 215 0.9 2.6 0.00 0.00 0.00 42 1022.0
20260502060034 46 189 0.9 1.7 0.00 0.00 0.00 43 1022.0
20260502055506 47 230 0.0 1.7 0.00 0.00 0.00 44 1022.1
20260502055003 47 230 0.0 1.7 0.00 0.00 0.00 44 1022.1
20260502054506 46 232 0.0 1.7 0.00 0.00 0.00 43 1022.1
20260502054003 46 227 0.0 1.7 0.00 0.00 0.00 43 1022.0
20260502053505 46 232 0.0 1.7 0.00 0.00 0.00 44 1021.8
20260502053016 47 238 0.0 1.7 0.00 0.00 0.00 44 1021.8
20260502052514 47 238 0.0 0.0 0.00 0.00 0.00 44 1021.8
20260502052007 47 238 0.0 1.7 0.00 0.00 0.00 44 1021.8
20260502051524 47 238 0.0 1.7 0.00 0.00 0.00 42 1021.8
20260502051006 47 238 0.0 1.7 0.00 0.00 0.00 42 1021.7
20260502050502 47 238 0.0 1.7 0.00 0.00 0.00 43 1021.7
20260502050016 47 246 0.0 22.6 0.00 0.00 0.00 41 1021.8
20260502045506 48 250 0.0 22.6 0.00 0.00 0.00 43 1021.8
20260502045010 48 247 0.0 1.7 0.00 0.00 0.00 43 1021.8
20260502044518 48 199 0.0 1.7 0.00 0.00 0.00 43 1021.8
20260502044008 48 198 0.0 1.7 0.00 0.00 0.00 42 1021.8
20260502043510 48 198 0.0 1.7 0.00 0.00 0.00 42 1021.8
20260502043003 48 198 0.0 1.7 0.00 0.00 0.00 41 1021.8
20260502042502 48 198 0.0 1.7 0.00 0.00 0.00 41 1021.8
20260502042004 48 198 0.0 1.7 0.00 0.00 0.00 41 1021.7
20260502041529 49 198 0.0 1.7 0.00 0.00 0.00 40 1021.7
20260502041005 49 198 0.0 1.7 0.00 0.00 0.00 39 1021.6
20260502040509 49 119 0.0 1.7 0.00 0.00 0.00 40 1021.6
20260502040043 49 213 0.0 1.7 0.00 0.00 0.00 40 1021.5
20260502035506 49 209 0.0 1.7 0.00 0.00 0.00 39 1021.5
20260502035011 49 210 0.0 1.7 0.00 0.00 0.00 37 1021.4
20260502034506 49 209 0.0 1.7 0.00 0.00 0.00 36 1021.3
20260502034005 50 207 0.0 1.7 0.00 0.00 0.00 39 1021.2
20260502033505 50 206 0.0 1.7 0.00 0.00 0.00 39 1021.0
20260502033027 50 206 0.0 1.7 0.00 0.00 0.00 37 1020.8
20260502032507 50 221 0.0 1.7 0.00 0.00 0.00 36 1020.8
20260502032011 51 221 0.0 1.7 0.00 0.00 0.00 35 1020.6
20260502031526 51 221 0.0 1.7 0.00 0.00 0.00 35 1020.5
20260502031009 51 221 0.0 1.7 0.00 0.00 0.00 32 1020.5
20260502030502 51 220 0.0 1.7 0.00 0.00 0.00 34 1020.4
20260502030020 51 220 0.0 1.7 0.00 0.00 0.00 33 1020.4
20260502025506 51 190 0.0 1.7 0.00 0.00 0.00 34 1020.3
20260502025012 52 190 0.0 1.7 0.00 0.00 0.00 33 1020.2
20260502024518 52 190 0.0 1.7 0.00 0.00 0.00 33 1020.1
20260502024010 52 190 0.0 1.7 0.00 0.00 0.00 32 1020.0
20260502023507 53 138 0.0 1.7 0.00 0.00 0.00 32 1019.9
20260502023032 53 88 0.0 1.7 0.00 0.00 0.00 31 1019.8
20260502022503 54 87 0.0 1.7 0.00 0.00 0.00 31 1019.7
20260502022005 55 62 0.0 1.7 0.00 0.00 0.00 29 1019.6
20260502021520 55 61 0.0 1.7 0.00 0.00 0.00 27 1019.5
20260502021008 56 61 0.0 0.9 0.00 0.00 0.00 26 1019.5
20260502020510 57 61 0.0 0.0 0.00 0.00 0.00 25 1019.4
20260502020028 57 61 0.0 1.7 0.00 0.00 0.00 25 1019.4
20260502015509 58 61 0.0 1.7 0.00 0.00 0.00 23 1019.3
20260502015013 58 61 0.0 2.6 0.00 0.00 0.00 23 1019.3
20260502014504 59 44 0.9 2.6 0.00 0.00 0.00 23 1019.2
20260502014006 59 42 0.9 4.3 0.00 0.00 0.00 23 1019.1
20260502013506 59 39 1.7 4.3 0.00 0.00 0.00 21 1019.1
20260502013019 59 98 0.0 1.7 0.00 0.00 0.00 21 1019.1
20260502012507 60 98 0.0 1.7 0.00 0.00 0.00 22 1019.0
20260502012010 60 98 0.0 3.5 0.00 0.00 0.00 22 1018.9
20260502011526 60 38 0.0 3.5 0.00 0.00 0.00 21 1018.9
20260502011009 60 82 0.9 1.7 0.00 0.00 0.00 21 1018.8
20260502010503 60 83 0.0 1.7 0.00 0.00 0.00 20 1018.9
20260502010019 60 328 0.0 3.5 0.00 0.00 0.00 19 1018.8
20260502005508 60 328 1.7 3.5 0.00 0.00 0.00 19 1018.8
20260502005009 60 19 0.0 2.6 0.00 0.00 0.00 19 1018.7
20260502004528 61 274 0.9 2.6 0.00 0.00 0.00 19 1018.7
20260502004010 61 50 0.9 4.3 0.00 0.00 0.00 18 1018.7
20260502003510 62 34 0.9 5.2 0.00 0.00 0.00 18 1018.7
20260502003028 62 75 0.9 5.2 0.00 0.00 0.00 18 1018.7
20260502002503 63 344 0.9 3.5 0.00 0.00 0.00 18 1018.7
20260502002009 62 5 0.0 4.3 0.00 0.00 0.00 18 1018.6
20260502001512 62 284 1.7 4.3 0.00 0.00 0.00 19 1018.6
20260502001008 62 342 0.9 7.0 0.00 0.00 0.00 19 1018.7
20260502000510 62 19 1.7 7.0 0.00 0.00 0.00 18 1018.7
20260502000047 63 348 2.6 8.7 0.00 0.00 0.00 18 1018.7
20260501235508 63 260 1.7 8.7 0.00 0.00 0.00 18 1018.5
20260501235008 63 346 1.7 8.7 0.00 0.00 0.00 17 1018.6
20260501234513 62 310 1.7 7.8 0.00 0.00 0.00 17 1018.5
20260501234006 63 9 3.5 7.0 0.00 0.00 0.00 17 1018.6
20260501233506 63 24 0.9 2.6 0.00 0.00 0.00 18 1018.6
20260501233024 63 341 0.9 2.6 0.00 0.00 0.00 18 1018.6
20260501232512 62 263 0.9 3.5 0.00 0.00 0.00 18 1018.6
20260501232013 62 338 0.0 8.7 0.00 0.00 0.00 18 1018.6
20260501231527 62 58 3.5 8.7 0.00 0.00 0.00 18 1018.7
20260501231010 63 106 2.6 7.8 0.00 0.00 0.00 18 1018.6
20260501230503 63 48 2.6 7.8 0.00 0.00 0.00 18 1018.6
20260501230047 64 24 0.9 2.6 0.00 0.00 0.00 17 1018.5
20260501225506 63 246 0.9 3.5 0.00 0.00 0.00 19 1018.5
20260501225011 62 253 0.9 5.2 0.00 0.00 0.00 18 1018.5
20260501224528 62 334 2.6 8.7 0.00 0.00 0.00 18 1018.6
20260501224008 63 317 2.6 8.7 0.00 0.00 0.00 18 1018.6
20260501223509 65 18 1.7 3.5 0.00 0.00 0.00 18 1018.5
20260501223029 64 41 0.9 4.3 0.00 0.00 0.00 19 1018.5
20260501222503 64 295 0.9 4.3 0.00 0.00 0.00 19 1018.5
20260501222007 63 263 0.9 3.5 0.00 0.00 0.00 18 1018.5
20260501221525 63 46 1.7 7.0 0.00 0.00 0.00 19 1018.6
20260501221007 63 140 2.6 7.8 0.00 0.00 0.00 19 1018.7
20260501220510 62 15 2.6 7.8 0.00 0.00 0.00 20 1018.7
20260501220026 63 36 2.6 6.1 0.00 0.00 0.00 19 1018.7
20260501215510 62 84 0.9 4.3 0.00 0.00 0.00 21 1018.8
20260501215012 62 257 0.9 4.3 0.00 0.00 0.00 20 1018.8
20260501214524 61 294 1.7 8.7 0.00 0.00 0.00 21 1018.9
20260501214007 63 54 4.3 8.7 0.00 0.00 0.00 20 1019.0
20260501213508 63 46 0.9 7.0 0.00 0.00 0.00 21 1018.9
20260501213031 62 9 2.6 7.8 0.00 0.00 0.00 20 1019.1
20260501212510 62 131 1.7 10.4 0.00 0.00 0.00 21 1019.1
20260501212009 62 41 5.2 10.4 0.00 0.00 0.00 21 1019.1
20260501211526 62 61 0.9 9.6 0.00 0.00 0.00 22 1019.1
20260501211014 62 34 3.5 8.7 0.00 0.00 0.00 22 1019.3
20260501210506 61 120 1.7 8.7 0.00 0.00 0.00 23 1019.2
20260501210023 61 92 4.3 8.7 0.00 0.00 0.00 23 1019.4
20260501205508 61 63 3.5 8.7 0.00 0.00 0.00 23 1019.4
20260501205007 61 136 2.6 9.6 0.00 0.00 0.00 22 1019.4
20260501204525 62 64 3.5 8.7 0.00 0.00 0.00 23 1019.4
20260501204012 61 44 3.5 7.8 0.00 0.00 0.00 24 1019.4